Home   Weather   Bad Vilbel   Past weeks
Flag for Germany

Past Weather in Bad Vilbel, Hesse, Germany — Yesterday and Last 2 Weeks

Now
55 °F

Passing clouds.


Feels Like: 52 °F
Forecast: 58 / 54 °F
Wind: 13 mph from South

Location: Frankfurt-M-Flughafen Airport

Current Time: Oct 17, 2019 at 7:31:24 am

Latest Report: Oct 17, 2019 at 6:50 am


Visibility: N/A

Pressure: 29.89 "Hg

Humidity: 77%

Dew Point: 48 °F

Location of Bad VilbelLocation

Past Weather in Bad Vilbel — Graph

°F

Bad Vilbel Temperature Yesterday

Maximum temperature yesterday: 59 °F (at 8:50 pm)
Minimum temperature yesterday: 52 °F (at 4:50 am)
Average temperature yesterday: 55 °F

High & Low Weather Summary for the Past Weeks

 TemperatureHumidityPressure
High77 °F (Oct 13, 2:50 pm)100% (Oct 3, 11:20 pm)30.12 "Hg (Oct 3, 11:20 pm)
Low45 °F (Oct 3, 11:50 pm)45% (Oct 2, 5:20 pm)29.56 "Hg (Oct 2, 6:20 am)
Average55 °F85%29.92 "Hg
* Reported Oct 2 6:20 am — Oct 17 6:20 am, Bad Vilbel. Weather by CustomWeather, © 2019

Note: Actual official high and low records may vary slightly from our data, if they occured in-between our weather recording intervals... More about our weather records

Advertising

Bad Vilbel Weather History for the Previous 24 Hours

Scroll right to see more
 ConditionsComfort  
Time TempWeatherWind HumidityBarometerVisibility
6:20 am
Thu, Oct 17
55 °FLight rain. Passing clouds.12 mph77%29.89 "HgN/A
5:50 am57 °FPassing clouds.12 mph72%29.89 "HgN/A
5:20 am57 °FPassing clouds.10 mph72%29.89 "HgN/A
4:50 am57 °FPassing clouds.12 mph72%29.89 "HgN/A
4:20 am55 °FPassing clouds.10 mph77%29.89 "HgN/A
3:50 am55 °FLight rain. Passing clouds.9 mph77%29.89 "HgN/A
3:20 am55 °FClear.9 mph77%29.89 "Hg10 mi
2:50 am55 °FClear.8 mph77%29.89 "Hg10 mi
2:20 am55 °FClear.7 mph77%29.89 "Hg10 mi
1:50 am55 °FPassing clouds.5 mph77%29.89 "HgN/A
1:20 am55 °FLight rain. Passing clouds.3 mph77%29.89 "HgN/A
12:50 am54 °FPassing clouds.3 mph88%29.89 "HgN/A
12:20 am52 °FClear.2 mph94%29.89 "Hg10 mi
11:50 pm
Wed, Oct 16
52 °FClear.2 mph94%29.89 "Hg10 mi
11:20 pm52 °FClear.3 mph94%29.89 "Hg10 mi
10:50 pm54 °FClear.7 mph88%29.89 "Hg10 mi
10:20 pm55 °FClear.8 mph77%29.89 "Hg10 mi
9:50 pm57 °FClear.8 mph77%29.89 "Hg10 mi
9:20 pm59 °FClear.8 mph72%29.89 "Hg10 mi
8:50 pm59 °FClear.8 mph72%29.89 "Hg10 mi
8:20 pm57 °FClear.8 mph77%29.89 "Hg10 mi
7:50 pm57 °FLight rain. Passing clouds.7 mph82%29.89 "HgN/A
7:20 pm57 °FPassing clouds.7 mph82%29.89 "HgN/A
6:50 pm57 °FPassing clouds.5 mph88%29.89 "HgN/A
6:20 pm57 °FLight rain. Passing clouds.5 mph88%29.89 "HgN/A
5:50 pm57 °FLight rain. Passing clouds.5 mph88%29.89 "HgN/A
5:20 pm57 °FPassing clouds.3 mph88%29.89 "HgN/A
4:50 pm57 °FLight rain. Passing clouds.6 mph88%29.89 "HgN/A
4:20 pm57 °FLight rain. Passing clouds.7 mph88%29.89 "HgN/A
3:50 pm55 °FPassing clouds.7 mph94%29.92 "HgN/A
3:20 pm55 °FLight rain. Scattered clouds.7 mph94%29.92 "HgN/A
2:50 pm55 °FLight rain. Scattered clouds.10 mph88%29.92 "HgN/A
2:20 pm55 °FLight rain. Partly sunny.12 mph94%29.92 "HgN/A
1:50 pm55 °FLight rain. Overcast.16 mph88%29.92 "HgN/A
1:20 pm57 °FLight rain. Partly sunny.12 mph77%29.92 "HgN/A
12:50 pm57 °FBroken clouds.9 mph77%29.95 "HgN/A
12:20 pm55 °FPartly sunny.10 mph82%29.95 "HgN/A
11:50 am55 °FPartly sunny.9 mph82%29.95 "HgN/A
11:20 am54 °FSprinkles. Partly sunny.10 mph88%29.95 "HgN/A
10:50 am55 °FPartly sunny.12 mph82%29.95 "HgN/A
10:20 am55 °FPartly sunny.14 mph77%29.95 "HgN/A
9:50 am55 °FScattered clouds.12 mph77%29.95 "HgN/A
9:20 am54 °FPassing clouds.10 mph82%29.95 "HgN/A
8:50 am54 °FPassing clouds.9 mph82%29.92 "HgN/A
8:20 am52 °FPartly sunny.9 mph88%29.92 "HgN/A
7:50 am52 °FPartly sunny.10 mph94%29.92 "HgN/A
7:20 am52 °FPassing clouds.10 mph94%29.92 "HgN/A
Weather by CustomWeather, © 2019

See weather overview